Location: Peebles
(55.6412°N, 3.1714°W)
Time: 21:44:48
(UTC+00:00)

deb Agena D - Pass Details

Date: 24 September 2023
Orbit: 794 x 979 km, 99.8° (Epoch: 28 November)

Event Time Altitude Azimuth Distance (km) Brightness Sun altitude
Rises 02:49:33 0° 16° (NNE) 3,693 10.6 -30.7°
Reaches altitude 10° 02:52:12 10° 9° (N) 2,745 9.6 -30.5°
Maximum altitude 02:57:45 36° 305° (NW) 1,495 7.4 -30.1°
Enters shadow 02:57:50 36° 303° (WNW) 1,496 7.4 -30.1°
